GW5350 Weather Reports


Display with metric or nautical units.
time (UTC)temp
F
wind
direction
speed
MPH
gust
MPH
rain 1hr
in
rain 24hr
in
rain mn
in
humidity
%
barometer
mb
20260509023811 81 121 0.0 0.0 0.00 0.00 0.00 80 985.0
20260509023311 81 150 0.0 0.0 0.00 0.00 0.00 81 985.0
20260509022811 81 61 2.0 2.0 0.00 0.00 0.00 82 985.0
20260509022311 81 110 0.0 1.0 0.00 0.00 0.00 82 984.0
20260509021811 81 104 0.0 0.0 0.00 0.00 0.00 81 985.0
20260509021311 81 96 0.0 0.0 0.00 0.00 0.00 82 984.0
20260509020811 80 89 0.0 1.0 0.00 0.00 0.00 83 984.0
20260509020312 80 21 1.0 2.0 0.00 0.00 0.00 83 984.0
20260509015811 80 118 0.0 1.0 0.00 0.00 0.00 84 984.0
20260509015311 80 106 1.0 2.0 0.00 0.00 0.00 84 984.0
20260509014811 80 85 1.0 1.0 0.00 0.00 0.00 84 984.0
20260509014312 79 118 0.0 0.0 0.00 0.00 0.00 85 984.0
20260509013811 79 150 1.0 2.0 0.00 0.00 0.00 85 984.0
20260509013311 79 141 1.0 1.0 0.00 0.00 0.00 85 984.0
20260509012811 79 127 1.0 1.0 0.00 0.00 0.00 86 984.0
20260509012311 79 112 0.0 0.0 0.00 0.00 0.00 87 984.0
20260509011811 78 118 0.0 0.0 0.00 0.00 0.00 87 984.0
20260509011312 78 128 0.0 0.0 0.00 0.00 0.00 87 984.0
20260509010811 78 119 0.0 0.0 0.00 0.00 0.00 88 984.0
20260509010312 78 129 0.0 0.0 0.00 0.00 0.00 88 984.0
20260509005811 78 124 0.0 0.0 0.00 0.00 0.00 88 984.0
20260509005311 78 120 0.0 0.0 0.00 0.00 0.00 88 983.0
20260509004811 78 120 0.0 0.0 0.00 0.00 0.00 89 983.0
20260509004311 78 105 0.0 0.0 0.00 0.00 0.00 89 984.0
20260509003811 78 103 0.0 0.0 0.00 0.00 0.00 88 984.0
20260509003311 78 111 0.0 0.0 0.00 0.00 0.00 88 984.0
20260509002811 78 111 0.0 0.0 0.00 0.00 0.00 88 984.0
20260508164311 80 82 3.0 3.0 0.00 0.00 0.07 84 985.0
20260508163812 80 113 0.0 1.0 0.00 0.00 0.07 84 985.0
20260508163311 80 79 1.0 2.0 0.00 0.00 0.07 84 985.0
20260508162811 80 104 0.0 0.0 0.00 0.00 0.07 84 985.0
20260508162311 80 110 3.0 6.0 0.00 0.00 0.07 83 985.0
20260508161813 80 58 4.0 4.0 0.00 0.00 0.07 83 985.0
20260508161313 80 90 1.0 2.0 0.00 0.00 0.07 84 985.0
20260508160811 80 132 0.0 1.0 0.00 0.00 0.07 84 985.0
20260508160314 80 59 2.0 2.0 0.00 0.00 0.07 84 985.0
20260508155812 80 119 0.0 0.0 0.00 0.00 0.07 85 985.0
20260508155312 80 48 0.0 2.0 0.00 0.00 0.07 85 985.0
20260508154812 80 74 1.0 2.0 0.00 0.00 0.07 85 985.0
20260508154312 80 106 1.0 1.0 0.00 0.00 0.07 85 984.0
20260508153811 80 128 6.0 8.0 0.00 0.00 0.07 85 984.0
20260508153312 80 62 4.0 4.0 0.00 0.00 0.07 85 984.0
20260508152811 80 39 4.0 7.0 0.00 0.00 0.07 85 984.0
20260508152312 80 46 5.0 7.0 0.00 0.00 0.07 85 984.0
20260508151812 79 91 4.0 7.0 0.00 0.00 0.07 86 984.0
20260508151311 79 51 3.0 4.0 0.00 0.00 0.07 86 984.0
20260508150812 79 41 3.0 3.0 0.05 0.00 0.07 86 984.0
20260508150311 79 59 5.0 6.0 0.05 0.00 0.07 86 984.0
20260508145812 79 69 4.0 6.0 0.00 0.00 0.06 86 984.0
20260508145311 79 93 5.0 7.0 0.00 0.00 0.06 87 984.0
20260508144811 79 83 3.0 6.0 0.07 0.00 0.06 86 984.0
20260508144311 79 44 4.0 6.0 0.07 0.00 0.06 86 984.0
20260508143811 79 132 2.0 2.0 0.07 0.00 0.06 86 984.0
20260508143312 79 62 5.0 8.0 0.07 0.00 0.05 86 984.0
20260508142812 79 42 5.0 9.0 0.07 0.00 0.05 85 984.0
20260508142311 79 144 5.0 7.0 0.12 0.00 0.05 85 984.0
20260508141812 79 156 4.0 6.0 0.05 0.00 0.04 84 984.0
20260508141311 80 59 4.0 6.0 0.00 0.00 0.03 84 984.0
20260508140811 80 61 3.0 3.0 0.00 0.00 0.03 84 984.0
20260508140312 79 102 4.0 4.0 0.00 0.00 0.03 83 984.0
20260508135812 79 81 3.0 4.0 0.00 0.00 0.03 83 984.0
20260508135311 79 52 2.0 3.0 0.07 0.00 0.03 84 983.0
20260508134813 79 66 3.0 4.0 0.07 0.00 0.03 83 983.0
20260508134313 79 37 6.0 7.0 0.00 0.00 0.02 84 983.0
20260508133813 79 143 4.0 6.0 0.00 0.00 0.02 84 983.0
20260508133311 79 60 7.0 8.0 0.05 0.00 0.02 83 983.0
20260508132812 79 121 4.0 6.0 0.05 0.00 0.02 83 983.0
20260508132311 79 55 5.0 6.0 0.00 0.00 0.01 82 983.0
20260508131811 80 102 4.0 7.0 0.07 0.00 0.01 81 983.0
20260508131311 80 89 4.0 4.0 0.07 0.00 0.01 80 983.0
20260508130811 80 31 3.0 6.0 0.00 0.00 0.00 79 983.0
20260508130312 80 92 4.0 7.0 0.00 0.00 0.00 78 983.0
20260508125811 80 88 6.0 8.0 0.00 0.00 0.00 78 982.0
20260508125312 80 71 5.0 8.0 0.00 0.00 0.00 78 982.0
20260508124811 80 33 4.0 6.0 0.00 0.00 0.00 78 982.0
20260508124311 80 62 6.0 8.0 0.00 0.00 0.00 77 982.0
20260508123813 80 76 5.0 6.0 0.00 0.00 0.00 78 982.0
20260508123312 80 24 6.0 9.0 0.00 0.00 0.00 77 982.0
20260508122812 80 58 4.0 6.0 0.00 0.00 0.00 77 982.0
20260508122311 81 126 1.0 2.0 0.00 0.00 0.00 76 982.0
20260508121811 81 142 4.0 4.0 0.00 0.00 0.00 75 982.0
20260508121311 81 121 4.0 8.0 0.00 0.00 0.00 75 982.0
20260508120811 81 87 4.0 6.0 0.00 0.00 0.00 75 982.0
20260508120311 81 57 5.0 7.0 0.00 0.00 0.00 75 982.0
20260508115811 81 32 2.0 3.0 0.00 0.00 0.00 75 982.0
20260508115311 81 109 5.0 9.0 0.00 0.00 0.00 75 982.0
20260508114811 81 42 8.0 9.0 0.00 0.00 0.00 75 982.0
20260508114311 81 50 5.0 8.0 0.00 0.00 0.00 76 982.0
20260508113812 82 67 4.0 7.0 0.00 0.00 0.00 76 982.0
20260508113311 82 89 2.0 3.0 0.00 0.00 0.00 73 982.0
20260508112811 82 147 6.0 9.0 0.00 0.00 0.00 73 981.0
20260508112311 83 227 4.0 6.0 0.00 0.00 0.00 73 981.0
20260508111811 83 57 4.0 6.0 0.00 0.00 0.00 73 981.0
20260508111311 83 152 4.0 6.0 0.00 0.00 0.00 73 981.0
20260508110811 84 126 6.0 9.0 0.00 0.00 0.00 73 980.0
20260508110311 84 81 10.0 15.0 0.00 0.00 0.00 72 981.0
20260508105812 86 192 8.0 10.0 0.00 0.00 0.00 70 981.0
20260508105313 87 102 5.0 7.0 0.00 0.00 0.00 69 981.0
20260508104811 87 140 2.0 2.0 0.00 0.00 0.00 68 980.0
20260508104311 87 239 3.0 3.0 0.00 0.00 0.00 68 980.0
20260508103814 87 148 2.0 3.0 0.00 0.00 0.00 68 980.0
20260508103311 86 174 3.0 6.0 0.00 0.00 0.00 69 980.0
20260508102811 86 128 3.0 6.0 0.00 0.00 0.00 70 980.0
20260508102312 87 109 2.0 3.0 0.00 0.00 0.00 69 980.0
20260508101812 87 112 1.0 2.0 0.00 0.00 0.00 67 980.0
20260508101311 88 125 0.0 0.0 0.00 0.00 0.00 67 980.0
20260508100812 88 137 0.0 1.0 0.00 0.00 0.00 67 980.0
20260508100311 88 152 1.0 1.0 0.00 0.00 0.00 67 980.0
20260508095811 87 292 1.0 2.0 0.00 0.00 0.00 67 980.0
20260508095311 87 165 2.0 2.0 0.00 0.00 0.00 67 980.0
20260508094812 87 133 3.0 3.0 0.00 0.00 0.00 67 980.0
20260508094311 88 230 2.0 3.0 0.00 0.00 0.00 67 980.0
20260508093811 88 146 3.0 4.0 0.00 0.00 0.00 65 980.0
20260508093311 88 159 2.0 4.0 0.00 0.00 0.00 66 980.0
20260508092811 88 349 3.0 7.0 0.00 0.00 0.00 66 980.0
20260508092313 91 214 5.0 7.0 0.00 0.00 0.00 64 980.0
20260508091811 92 140 2.0 2.0 0.00 0.00 0.00 60 980.0
20260508091311 92 151 2.0 3.0 0.00 0.00 0.00 60 981.0
20260508090812 92 133 1.0 2.0 0.00 0.00 0.00 61 981.0
20260508090311 92 139 2.0 2.0 0.00 0.00 0.00 61 981.0
20260508085811 92 154 4.0 6.0 0.00 0.00 0.00 61 981.0
20260508085311 92 121 1.0 2.0 0.00 0.00 0.00 61 981.0
20260508084812 91 155 2.0 3.0 0.00 0.00 0.00 62 981.0
20260508084311 91 141 4.0 4.0 0.00 0.00 0.00 62 981.0
20260508083812 92 126 1.0 1.0 0.00 0.00 0.00 61 981.0
20260508083312 92 112 4.0 7.0 0.00 0.00 0.00 61 981.0
20260508082811 92 96 3.0 4.0 0.00 0.00 0.00 61 982.0
20260508082311 92 121 4.0 7.0 0.00 0.00 0.00 62 981.0
20260508081814 93 105 1.0 1.0 0.00 0.00 0.00 60 982.0
20260508081311 93 163 2.0 2.0 0.00 0.00 0.00 60 982.0
20260508080811 93 143 1.0 1.0 0.00 0.00 0.00 59 982.0
20260508080311 93 125 2.0 3.0 0.00 0.00 0.00 59 982.0
20260508075812 93 109 2.0 3.0 0.00 0.00 0.00 59 982.0
20260508075311 94 83 2.0 2.0 0.00 0.00 0.00 58 982.0
20260508074812 94 35 0.0 1.0 0.00 0.00 0.00 58 982.0
20260508074311 95 356 1.0 2.0 0.00 0.00 0.00 57 982.0
20260508073812 95 143 0.0 0.0 0.00 0.00 0.00 57 982.0
20260508073311 94 113 0.0 0.0 0.00 0.00 0.00 59 982.0
20260508072812 95 182 1.0 1.0 0.00 0.00 0.00 57 982.0
20260508072312 94 132 0.0 1.0 0.00 0.00 0.00 58 982.0
20260508071812 94 122 1.0 2.0 0.00 0.00 0.00 58 982.0
20260508071313 94 209 1.0 2.0 0.00 0.00 0.00 59 982.0
20260508070812 94 352 1.0 1.0 0.00 0.00 0.00 59 983.0
20260508070313 93 169 1.0 1.0 0.00 0.00 0.00 61 983.0
20260508065811 93 136 2.0 3.0 0.00 0.00 0.00 60 983.0
20260508065312 94 111 1.0 2.0 0.00 0.00 0.00 59 983.0
20260508064812 95 260 2.0 3.0 0.00 0.00 0.00 59 983.0
20260508063812 95 2 2.0 2.0 0.00 0.00 0.00 60 983.0
20260508063311 94 182 1.0 1.0 0.00 0.00 0.00 59 983.0
20260508062811 94 197 2.0 3.0 0.00 0.00 0.00 60 983.0
20260508062314 93 115 1.0 1.0 0.00 0.00 0.00 61 983.0
20260508061812 93 124 0.0 0.0 0.00 0.00 0.00 61 983.0
20260508061312 91 136 2.0 2.0 0.00 0.00 0.00 62 984.0
20260508054811 90 129 0.0 1.0 0.00 0.00 0.00 58 984.0
20260508054311 90 103 0.0 1.0 0.00 0.00 0.00 59 984.0
20260508053811 90 154 1.0 2.0 0.00 0.00 0.00 60 984.0
20260508053312 91 163 1.0 2.0 0.00 0.00 0.00 58 984.0
20260508052811 93 96 1.0 1.0 0.00 0.00 0.00 57 984.0
20260508052311 92 128 1.0 1.0 0.00 0.00 0.00 56 984.0
20260508051812 91 117 0.0 0.0 0.00 0.00 0.00 58 984.0
20260508051311 89 129 0.0 1.0 0.00 0.00 0.00 61 984.0
20260508050811 89 158 2.0 3.0 0.00 0.00 0.00 63 984.0
20260508050311 90 127 0.0 0.0 0.00 0.00 0.00 61 985.0
20260508045811 88 131 1.0 1.0 0.00 0.00 0.00 62 985.0
20260508045311 89 110 1.0 1.0 0.00 0.00 0.00 62 985.0
20260508044812 87 74 3.0 4.0 0.00 0.00 0.00 64 984.0
20260508044311 90 43 3.0 4.0 0.00 0.00 0.00 61 985.0
20260508043811 91 323 3.0 4.0 0.00 0.00 0.00 59 985.0
20260508043311 89 105 3.0 3.0 0.00 0.00 0.00 61 985.0
20260508042811 87 320 3.0 3.0 0.00 0.00 0.00 64 985.0
20260508042311 86 100 1.0 1.0 0.00 0.00 0.00 66 985.0
20260508041811 88 163 1.0 1.0 0.00 0.00 0.00 64 985.0
20260508041311 87 113 0.0 1.0 0.00 0.00 0.00 67 985.0
20260508040811 85 120 1.0 1.0 0.00 0.00 0.00 68 985.0
20260508040311 85 124 1.0 1.0 0.00 0.00 0.00 70 985.0
20260508035812 84 21 2.0 3.0 0.00 0.00 0.00 71 985.0
20260508035311 84 33 6.0 7.0 0.00 0.00 0.00 71 985.0
20260508034811 83 325 5.0 6.0 0.00 0.00 0.00 73 985.0
20260508034311 84 334 4.0 6.0 0.00 0.00 0.00 72 985.0
20260508033811 84 26 2.0 2.0 0.00 0.00 0.00 72 985.0
20260508033313 84 71 2.0 2.0 0.00 0.00 0.00 72 985.0
20260508032811 84 334 1.0 2.0 0.00 0.00 0.00 72 985.0
20260508032311 83 139 1.0 1.0 0.00 0.00 0.00 73 985.0
20260508031811 82 87 1.0 2.0 0.00 0.00 0.00 74 985.0
20260508031311 82 287 2.0 2.0 0.00 0.00 0.00 75 985.0
20260508030811 82 280 0.0 1.0 0.00 0.00 0.00 76 985.0
20260508030312 82 108 0.0 0.0 0.00 0.00 0.00 75 985.0
20260508025811 83 139 0.0 0.0 0.00 0.00 0.00 74 985.0
20260508025311 83 109 0.0 0.0 0.00 0.00 0.00 75 985.0
20260508024811 82 117 0.0 1.0 0.00 0.00 0.00 76 985.0
20260508024311 82 63 2.0 2.0 0.00 0.00 0.00 76 985.0